Jackpot

Texas Poker Multi Jackpot System

Kini Telah hadir Jackpot SUPER ROYAL FLUSH

Kini Telah hadir Jackpot 2000 (khusus table VIP keatas).

Ikutilah global jackpot yang tersedia di system kami, dengan system jackpot terbaru dan pertama di indonesia, anda dapat membeli jackpot dengan harga 100 rupiah saja dan menangkan hadiahnya hingga puluhan juta rupiah.

Jackpot bukanlah suatu keharusan untuk dibeli, namun kami memberikan suatu fitur tambahan untuk member tercinta dari www.judipoker.com.

Terdapat tiga pilihan harga jackpot yang bisa anda beli yaitu :100,500,1000 dan 2000(khusus table VIP Keatas) rupiah.

Hadiah dari Multi jackpot system www.judipoker.com

  1. full house x 10 harga jackpot yang anda beli.
      (contoh:anda membeli 1000 maka:1000 X10 = 10.000)
  2. four of kind x 250 harga jackpot yang anda beli
      (contoh:anda membeli 1000 maka:1000 X250 = 250.000)
  3. Straight flush x 1200
      (contoh:anda membeli 1000 maka:1000 X1200 = 1.200.000)
  4. Royal flush x 10000 harga jackpot yang anda beli
      (contoh:anda membeli 1000 maka:1000 X10000 = 10.000.000)
  5. SUPER ROYAL FLUSH x 30000 harga jackpot yang anda beli
      (contoh:anda membeli 1000 maka:1000 X30000 = 30.000.000)

Kondisi kartu

  1. full house adalah kondisi kartu dimana kartu anda dan kartu tengah dengan total 7 kartu bisa mendapatkan nilai 5 kartu dengan kombinasi 1 tris(three of kind) dan 1 pair, contoh 3 kartu 10 dan 2 kartu 5
  2. Four of kind adalah kondisi kartu dimana kartu anda dan kartu tengah dengan total 7 kartu bisa mendapatkan nilai 5 kartu dengan kombinasi 4 kartu yang sama jumlah dan 1 kartu apapun juga contoh anda mendapatkan 4 buah kartu angka 3 dan 1 kartu apapun.
  3. Staright flush adalah kondisi kartu dimana kartu anda dan kartu tengah dengan total 7 kartu bisa mendapatkan nilai 5 kartu dengan kombinasi seri / staright dengan kembang yang sama contoh : urutan kartu dari angka 5, 6, 7, 8 , 9 10 dengan kembang yg sama misalnya as hati
  4. Royal flush adalah kondisi kartu dimana kartu anda dan kartu tengah dengan total 7 kartu bisa mendapatkan nilai 5 kartu dengan kombinasi seri / staright dengan kembang yang sama tetapi kartu tersebut haruslah dimulai dari 10. contoh 10, Queen, Jack, King dan aces dengan kembang yang sama
  5. Super Royal flush adalah kondisi kartu dimana Kedua kartu anda digabung dengan 3 kartu pertama meja haruslah royal flush. contoh kartu anda 10,Queen kembang sama dan 3 kartu pertama meja adalah Jack, King dan aces dengan kembang yang sama

Demikian adalah penjelasan dari Multi Jackpot www.judipoker.com terima kasih dan selamat bermain salam hoki dari kami

Texas Poker Jackpot Winner

TOP SUPER ROYAL FLUSH
No.TanggalNamaPriceWin
119/08 21:26IBOTKERS1Super Royal flush6,000,000
219/08 21:07APUY62Super Royal flush30,000,000
319/08 18:08TORES4DSuper Royal flush15,000,000
419/08 15:20HERU447Super Royal flush6,000,000
519/08 11:52E049306FSuper Royal flush3,000,000
TOP ROYAL FLUSH
No.TanggalNamaPriceWin
119/08 22:24BUDABAR77Royal flush5,000,000
219/08 22:20BEDUARRoyal flush2,000,000
319/08 22:15RIZAL47Royal flush20,000,000
419/08 22:09BYAI87Royal flush10,000,000
519/08 21:55WINARTI00Royal flush2,000,000
TOP STRAIGHT FLUSH
No.TanggalNamaPriceWin
119/08 22:28BUSER1Straight Flush240,000
219/08 22:27KP440676Straight Flush240,000
319/08 22:26BIDUAN69Straight Flush240,000
419/08 22:26MEOWITUStraight Flush240,000
519/08 22:24JPBROOStraight Flush240,000
LATEST JACKPOT
No.TanggalNamaPriceWin
119/08 22:28QWINNS99Full House2,000
219/08 22:28DWAPNOLONGFull House1,000
319/08 22:28AS0608XXFull House20,000
419/08 22:28MBK09Full House2,000
519/08 22:28DIDUK99Full House5,000
619/08 22:28TACIKOFull House2,000
719/08 22:28BONGKAR88Full House1,000
819/08 22:28CRINK999Full House1,000
919/08 22:28TEMPETAHU9Full House2,000
1019/08 22:28RISINGSUNFull House2,000
1119/08 22:28CAK3Full House2,000
1219/08 22:28PASIR24Full House5,000
1319/08 22:28JILONG123Full House10,000
1419/08 22:28BPJP39Full House5,000
1519/08 22:28E9996A2AFull House10,000
1619/08 22:28SAGUMPAFull House10,000
1719/08 22:28A5323673Full House2,000
1819/08 22:28NUMFORFull House5,000
1919/08 22:28SALAHHIJIFull House2,000
2019/08 22:28L0L0QWQWFull House1,000
2119/08 22:28BUSER1Straight Flush240,000
2219/08 22:28LOLJEBOTFull House5,000
2319/08 22:28NURMAJIDFull House2,000
2419/08 22:28KACACKFull House1,000
2519/08 22:28WOII_07Full House5,000
2619/08 22:28MUHZONFull House5,000
2719/08 22:28CAMAY389Full House1,000
2819/08 22:28MAMAX78Full House5,000
2919/08 22:28DPO21Full House10,000
3019/08 22:28DD32D56DFull House2,000
3119/08 22:28ATEL76Four Of A Kind250,000
3219/08 22:28PD4DKASIH12Full House2,000
3319/08 22:28UA3XCRU2Y1Full House500
3419/08 22:28B4YUHANFull House2,000
3519/08 22:28BENS73Full House2,000
3619/08 22:28MONOCKFull House2,000
3719/08 22:28DOBO888Full House2,000
3819/08 22:28YAYUIK123Full House10,000
3919/08 22:28WQJTFYHGTHFull House2,000
4019/08 22:28DWBTXFUE53Full House10,000
4119/08 22:28QQQQQ11111Four Of A Kind125,000
4219/08 22:28B4NGK17UTFull House2,000
4319/08 22:28PANDACINAFull House10,000
4419/08 22:28PAIZA34Full House5,000
4519/08 22:28LETNAN1988Four Of A Kind500,000
4619/08 22:28DEDEBODONGFull House5,000
4719/08 22:28V1_D1KFour Of A Kind250,000
4819/08 22:28STANUP1Full House1,000
4919/08 22:28MASRUM333Full House2,000
5019/08 22:28G3PL4YFull House2,000

Domino Multi Jackpot System

Ikutilah global jackpot yang tersedia di system kami, dengan system jackpot terbaru dan pertama di indonesia, anda dapat membeli jackpot dengan harga 100 rupiah saja dan menangkan hadiahnya hingga puluhan juta rupiah.

Jackpot bukanlah suatu keharusan untuk dibeli, namun kami memberikan suatu fitur tambahan untuk member tercinta dari www.judipoker.com.

Terdapat tiga pilihan harga jackpot yang bisa anda beli yaitu :100,500 dan 1000 rupiah.

Hadiah dari Multi jackpot system www.judipoker.com

  1. Murni Kecil x 50 harga jackpot yang anda beli.
      (contoh:anda membeli 1000 maka:1000 X 50 = 50.000)
  2. Murni Besar x 50 harga jackpot yang anda beli
      (contoh:anda membeli 1000 maka:1000 X 50 = 50.000)
  3. BALAK x 100 harga jackpot yang anda beli
      (contoh:anda membeli 1000 maka:1000 X 100 = 100.000)
  4. ENAM DEWA x 6666 harga jackpot yang anda beli
      (contoh:anda membeli 1000 maka:1000 X 6666 = 6.666.000)

Demikian adalah penjelasan dari Multi Jackpot www.judipoker.com terima kasih dan selamat bermain salam hoki dari kami

Domino Jackpot Winner

TOP ENAM DEWA
No.TanggalNamaPriceWin
119/08 22:00LAZIRIZALmurni enam6,666,000
219/08 21:50SELALUWINZmurni enam666,600
319/08 20:00ADRNEmurni enam3,333,000
419/08 19:31BANUN77murni enam6,666,000
519/08 19:20RIENIEmurni enam3,333,000
TOP BALAK
No.TanggalNamaPriceWin
119/08 22:27TOYOK81balak50,000
219/08 22:26TOYOK81balak50,000
319/08 22:26X8P3UV0UCHbalak100,000
419/08 22:25SAINSUNbalak100,000
519/08 22:25PETDON26balak100,000
LATEST JACKPOT
No.TanggalNamaPriceWin
119/08 22:28AGO351murni kecil50,000
219/08 22:28WWLGR2Fmurni besar50,000
319/08 22:27TOYOK81balak50,000
419/08 22:27MARYANTO70murni besar50,000
519/08 22:27RAYAP80murni besar50,000
619/08 22:26TOYOK81balak50,000
719/08 22:26X8P3UV0UCHbalak100,000
819/08 22:25BONENG01murni kecil50,000
919/08 22:25T4DACOGLENS05murni kecil50,000
1019/08 22:25DONGAH92murni besar50,000
1119/08 22:25ANILAHSA16murni kecil25,000
1219/08 22:25CELSI77murni besar50,000
1319/08 22:25SAINSUNbalak100,000
1419/08 22:25ARISMAN714murni kecil5,000
1519/08 22:25MAID34murni kecil50,000
1619/08 22:25PETDON26balak100,000
1719/08 22:25YUDHANGGAmurni besar50,000
1819/08 22:24AGENT24murni kecil50,000
1919/08 22:24AGENT24murni kecil50,000
2019/08 22:24NGENTENlucky9925,000
2119/08 22:23GORILA47murni besar50,000
2219/08 22:23NDUT18murni kecil5,000
2319/08 22:23ARIEF1717murni besar50,000
2419/08 22:23CUPLUY01murni kecil50,000
2519/08 22:23JHITHUmurni kecil25,000
2619/08 22:22BSP5478balak10,000
2719/08 22:22YONOXETImurni besar5,000
2819/08 22:22SHATRIA998murni besar5,000
2919/08 22:22JEBE85murni kecil50,000
3019/08 22:22IGOENRASTAmurni besar50,000
3119/08 22:22VALLEN222murni kecil50,000
3219/08 22:21NIE9MQ7ELCmurni kecil50,000
3319/08 22:21FOREST97murni kecil50,000
3419/08 22:21G4S89murni besar50,000
3519/08 22:20YUSUFMESSImurni besar5,000
3619/08 22:20VHY86murni besar50,000
3719/08 22:19LK4DKUMISMANISmurni besar50,000
3819/08 22:19JIE21murni kecil25,000
3919/08 22:18POPON79murni kecil25,000
4019/08 22:18TINGGEDE77murni besar50,000
4119/08 22:18PULMEKAmurni kecil25,000
4219/08 22:18DODI891balak100,000
4319/08 22:18IGOENRASTAbalak100,000
4419/08 22:18BSP5478murni besar5,000
4519/08 22:17MRSBRmurni kecil5,000
4619/08 22:17KURNIA09balak10,000
4719/08 22:16HOME88878murni kecil50,000
4819/08 22:15AGUS7705balak100,000
4919/08 22:15ARIEF1717murni besar50,000
5019/08 22:15MURDOXX181balak100,000

Ceme Multi Jackpot System

Jackpot dilihat dari gabungan kartu pemain dengan kartu bandar. Bandar harus membeli jackpot sebanyak jumlah player yang sedang duduk. Sebagai contoh bila terdapat 3 pemain duduk bermain, dan bandar memutuskan untuk membeli jackpot Rp 1.000, maka pada periode tersebut bandar akan membeli jackpot sebanyak 3xRp1.000 = Rp3.000.

Jackpot bukanlah suatu keharusan untuk dibeli, namun kami memberikan suatu fitur tambahan untuk member tercinta dari www.judipoker.com.

Terdapat tiga pilihan harga jackpot yang bisa anda beli yaitu :100,500 dan 1000 rupiah.

Hadiah dari Multi jackpot system www.judipoker.com

  1. Murni Kecil x 50 harga jackpot yang anda beli.
      (contoh:anda membeli 1000 maka:1000 X 50 = 50.000)
  2. Murni Besar x 50 harga jackpot yang anda beli
      (contoh:anda membeli 1000 maka:1000 X 50 = 50.000)
  3. BALAK x 200 harga jackpot yang anda beli
      (contoh:anda membeli 1000 maka:1000 X 200 = 200.000)
  4. ENAM DEWA x 6666 harga jackpot yang anda beli
      (contoh:anda membeli 1000 maka:1000 X 6666 = 6.666.000)

Demikian adalah penjelasan dari Multi Jackpot www.judipoker.com terima kasih dan selamat bermain salam hoki dari kami

Ceme Jackpot Winner

TOP ENAM DEWA
No.TanggalNamaPriceWin
119/08 22:27SINGMILIK8murni enam666,600
219/08 22:22ADHI542murni enam3,333,000
319/08 22:13TENRITATTAmurni enam6,666,000
419/08 22:10OWWOWWmurni enam3,333,000
519/08 22:06CIKAL87murni enam666,600
TOP BALAK
No.TanggalNamaPriceWin
119/08 22:28SPRING29balak200,000
219/08 22:28BIRRA123balak100,000
319/08 22:28CLAUDE88balak200,000
419/08 22:28BEJOKWDbalak20,000
519/08 22:28LONGONG999balak200,000
LATEST JACKPOT
No.TanggalNamaPriceWin
119/08 22:28CAMPTO26murni kecil50,000
219/08 22:28SPRING29balak200,000
319/08 22:28BIRRA123balak100,000
419/08 22:28BUNTAL95murni kecil50,000
519/08 22:28CLAUDE88balak200,000
619/08 22:28BEJOKWDbalak20,000
719/08 22:28GITA96murni kecil50,000
819/08 22:28LONGONG999balak200,000
919/08 22:28CIPUY06murni kecil50,000
1019/08 22:28JACK86murni kecil5,000
1119/08 22:28LEGUN73murni besar50,000
1219/08 22:28THEMASTHERmurni besar5,000
1319/08 22:27YUDHI70murni kecil25,000
1419/08 22:27PERSEUS2murni kecil50,000
1519/08 22:27UZM212balak20,000
1619/08 22:27HT7TKEWELLmurni besar25,000
1719/08 22:27PUSY111murni besar25,000
1819/08 22:27MEONG66666balak200,000
1919/08 22:27IDEBAGUS99balak100,000
2019/08 22:27DEWATERLAWmurni kecil50,000
2119/08 22:27ESTEHMANISmurni kecil50,000
2219/08 22:27IVAND76murni besar5,000
2319/08 22:27SINGMILIK8murni enam666,600
2419/08 22:27ARYN188murni besar5,000
2519/08 22:27E0A49A8Ebalak20,000
2619/08 22:27AGUSDEVImurni kecil5,000
2719/08 22:27MAROEMmurni kecil50,000
2819/08 22:27BURUNG112murni kecil5,000
2919/08 22:27DENNY90murni kecil5,000
3019/08 22:27HINGLOMmurni kecil5,000
3119/08 22:27PONPON89murni kecil50,000
3219/08 22:27UZM212murni besar5,000
3319/08 22:27CECE789murni kecil50,000
3419/08 22:27GASCABEmurni kecil25,000
3519/08 22:27KUPLE7murni kecil25,000
3619/08 22:27B39DRA91694murni besar50,000
3719/08 22:27SPRING29murni kecil50,000
3819/08 22:27SPRING29murni kecil50,000
3919/08 22:27Y5BQGFHHNXmurni kecil50,000
4019/08 22:26RU91QB0FDNbalak200,000
4119/08 22:26JEANY766murni besar50,000
4219/08 22:26RPRISK1murni besar50,000
4319/08 22:26PIPO15murni kecil5,000
4419/08 22:26JOYA17murni besar50,000
4519/08 22:26WAWAN7799murni kecil50,000
4619/08 22:26ALVICKYmurni kecil50,000
4719/08 22:26UY33333murni kecil5,000
4819/08 22:26T333NAYmurni kecil50,000
4919/08 22:26SUPONOOmurni kecil50,000
5019/08 22:26ADIVANbalak200,000